Location: Asheville, NC
(35.6000°N, 82.5500°W)
Time: 11:50:33
(UTC-04:00)

Vanguard 1 - Pass Details

Date: 09 March 2018
Orbit: 650 x 3833 km, 34.3° (Epoch: 20 June)

Event Time Altitude Azimuth Distance (km) Brightness Sun altitude
Rises 05:31:22 0° 167° (SSE) 6,865 14.5 -16.7°
Reaches altitude 10° 05:43:52 10° 134° (SE) 6,634 14.9 -14.1°
Maximum altitude 05:47:03 11° 125° (SE) 6,716 15.1 -13.5°
Drops below altitude 10° 05:50:20 10° 117° (ESE) 6,852 15.3 -12.8°
Sets 06:04:24 0° 86° (E) 7,897 17.0 -10.0°
